Simultaneous Nadir Overpasses (SNOs) Predictions

Prediction of SNOs between AQUA and METOP-A Satellite Orbit:

Table of predicted SNOs for the next 14.0 days since TLE Epoch: 10/22/2016
Index Date (AQUA) Time (AQUA) Lat,Lon (AQUA) SZA (AQUA ) Date (METOP-A) Time (METOP-A) Lat,Lon (METOP-A) SZA (METOP-A ) Distance(km) Time Diff (sec)
1 10/24/2016 06:07:51 -73.41, -97.00 94.77 10/24/2016 06:06:42 -73.36, -98.67 94.80 53.57 69
2 10/24/2016 06:57:27 73.84, 69.72 85.69 10/24/2016 06:57:13 73.81, 69.70 85.66 3.44 14
3 10/24/2016 07:46:53 -73.88,-122.71 94.27 10/24/2016 07:47:53 -73.89,-122.79 94.26 2.65 60
4 10/27/2016 01:42:11 -73.65, -31.07 93.56 10/27/2016 01:40:59 -73.58, -31.76 93.62 22.96 72
5 10/27/2016 02:31:42 73.82, 136.19 86.63 10/27/2016 02:31:34 73.83, 136.15 86.63 1.34 8
6 10/27/2016 03:21:09 -73.90, -56.34 93.28 10/27/2016 03:22:14 -73.91, -56.32 93.28 0.74 65
7 10/29/2016 21:16:30 -73.80, 35.05 92.48 10/29/2016 21:15:17 -73.80, 35.16 92.48 3.44 73
8 10/29/2016 22:05:58 73.82,-157.36 87.56 10/29/2016 22:05:56 73.84,-157.41 87.58 2.65 2
9 10/29/2016 22:55:25 -73.89, 10.11 92.36 10/29/2016 22:56:36 -73.93, 10.13 92.33 3.66 71
10 11/01/2016 16:50:46 -73.80, 101.49 91.57 11/01/2016 16:49:40 -73.76, 101.49 91.60 3.57 66
11 11/01/2016 17:40:14 73.83, -90.94 88.47 11/01/2016 17:40:18 73.85, -90.97 88.50 2.69 4
12 11/01/2016 18:29:44 -74.05, 76.20 91.29 11/01/2016 18:30:56 -74.04, 76.82 91.31 19.09 72
13 11/04/2016 12:25:00 -73.76, 168.01 90.74 11/04/2016 12:24:01 -73.78, 167.93 90.72 3.02 59
14 11/04/2016 13:14:29 73.85, -24.55 89.37 11/04/2016 13:14:39 73.86, -24.54 89.38 1.19 10




NCC Satellite Simultaneous Nadir Overpasses (SNOs) Prediction Service
